COSMOS 2251 DEB

Satellite information

Favourite Embed

Satellite Type and Status

DEBRISIN ORBIT

Key statistics

Satellite COSMOS 2251 DEB at a glance.

Uptime

11813

Days in orbit

Revolutions

≈ 14.0

Per day

Orbit

LEO

Low Earth Orbit

Inclination

74.1

Latest

Satellite identification and parameters

Extended collection of information and parameters for COSMOS 2251 DEB.

Object identification

Identified? True

Debris? True

Object name: COSMOS 2251 DEB

International designator: 1993-036JM

Object number (NORAD): 34050

Object ID (CCSDS): 34050

Country: COMMONWEALTH OF INDEPENDENT STATES (CIS)

Current information (Y/N): Y

RCS size: SMALL

Orbital parameters

Period: 103.154 minutes

Inclination: 74.0855 deg

SMA: 7285.938 km

Apoapsis: 1066.134 km

Periapsis: 749.472 km

RAAN: 104.1221 deg

Eccentricy: 0.02173107

Argument of periapsis: 182.021 deg

Mean anomaly: 302.9375 deg

Mean motion: 13.95965029 rev/day

Mean motion (dot): 0.00003099 rev/day2

B* drag term: 0.0018701288 1/REarth

Two-line elements (TLE)

Creation date: Oct. 19, 2025, 2:20 a.m.

Reference frame: TEME

Reference center: EARTH

Epoch: Oct. 18, 2025, 9:23 p.m. UTC

TLE line 0: 0 COSMOS 2251 DEB

TLE line 1: 1 34050U 93036JM 25291.89116943 .00003099 00000-0 18701-2 0 9993

TLE line 2: 2 34050 74.0855 104.1221 0217311 182.0210 302.9375 13.95965029846661

Live tracking on map

Real-time ground track for satellite COSMOS 2251 DEB.

In-orbit conjunctions

A list of the most updated potential collisions computed for object COSMOS 2251 DEB.

Target Orbit TCA Probability of collision Miss distance Type
FENGYUN 1C DEB SSO 2025-07-31 09:28:35 0.0001879163 67.0 (m) DEBRIS
CZ-6A DEB SSO 2025-05-26 09:31:56 0.00023004 221.0 (m) DEBRIS
CZ-6A DEB LEO 2025-01-01 12:56:49 0.0001915141 397.0 (m) DEBRIS
CZ-6A DEB LEO 2024-12-08 04:35:19 0.0001429978 549.0 (m) DEBRIS
FENGYUN 1C DEB SSO 2024-07-08 09:06:59 0.0001128932 349.0 (m) DEBRIS

Associated space launch

Military communications satellite. Destroyed in a collision with Iridium 33.

COSMOS 2251 DEB was lifted into orbit during the mission ‘Kosmos-3M | Strela-2M 51’, on board a Kosmos-3M space rocket.

The launch took place on June 16, 1993, 4:17 a.m. from 132/1 (132L).

For more information about the launch, click the button.

Launch to space Kosmos-3M | Strela-2M 51
Kosmos-3M | Strela-2M 51

Agency: N/A

Status: Launch Successful

Launch date: June 16, 1993, 4:17 a.m. UTC

Rocket: Kosmos-3M

Launch pad: 132/1 (132L)

Location: Plesetsk Cosmodrome, Russian Federation

...

Latest news about this satellite

There are no fresh news available about this satellite. Check back as we update our databases every day.


Newsletter sign-up

Weekly statistics, charts and insights to help you stay on top of the space industry.